Time,TemperatureF,DewpointF,PressureIn,WindDirection,WindDirectionDegrees,WindSpeedMPH,WindSpeedGustMPH,Humidity,HourlyPrecipIn,Conditions,Clouds,dailyrainin,SoftwareType,DateUTC
2013-03-03 00:00:00,33.7,25.6,29.65,NE,35,1.0,3.0,72,0.00,,---,0.00,VWS V14.01,2013-03-03 05:00:00,
2013-03-03 00:05:00,33.1,25.7,29.65,NNE,30,0.0,4.0,74,0.00,,---,0.00,VWS V14.01,2013-03-03 05:05:00,
2013-03-03 00:10:00,33.6,25.9,29.65,North,2,0.0,3.0,73,0.00,,---,0.00,VWS V14.01,2013-03-03 05:10:00,
2013-03-03 00:15:00,33.6,25.9,29.65,NW,305,0.0,5.0,73,0.00,,---,0.00,VWS V14.01,2013-03-03 05:15:00,
2013-03-03 00:20:00,33.5,25.8,29.65,North,6,1.0,4.0,73,0.00,,---,0.00,VWS V14.01,2013-03-03 05:20:00,
2013-03-03 00:25:00,33.4,25.7,29.65,NNW,337,2.0,5.0,73,0.00,,---,0.00,VWS V14.01,2013-03-03 05:25:00,
2013-03-03 00:30:00,33.4,25.7,29.65,NE,49,1.0,4.0,73,0.00,,---,0.00,VWS V14.01,2013-03-03 05:30:00,
2013-03-03 00:35:00,33.3,25.6,29.65,NE,48,0.0,4.0,73,0.00,,---,0.00,VWS V14.01,2013-03-03 05:35:00,
2013-03-03 00:40:00,33.3,25.9,29.65,NE,47,2.0,3.0,74,0.00,,---,0.00,VWS V14.01,2013-03-03 05:40:00,
2013-03-03 00:45:00,33.3,25.6,29.65,North,355,0.0,3.0,73,0.00,,---,0.00,VWS V14.01,2013-03-03 05:45:00,
2013-03-03 00:50:00,33.2,25.8,29.65,NW,318,0.0,3.0,74,0.00,,---,0.00,VWS V14.01,2013-03-03 05:50:00,
2013-03-03 00:55:00,33.2,25.8,29.65,North,3,0.0,3.0,74,0.00,,---,0.00,VWS V14.01,2013-03-03 05:55:00,
2013-03-03 01:00:00,33.1,25.7,29.65,NNW,330,1.0,4.0,74,0.00,,---,0.00,VWS V14.01,2013-03-03 06:00:00,
2013-03-03 01:05:00,32.7,25.7,29.64,North,3,0.0,4.0,75,0.00,,---,0.00,VWS V14.01,2013-03-03 06:05:00,
2013-03-03 01:10:00,33.0,25.6,29.65,West,269,2.0,3.0,74,0.00,,---,0.00,VWS V14.01,2013-03-03 06:10:00,
2013-03-03 01:15:00,33.0,25.6,29.65,NNE,26,4.0,4.0,74,0.00,,---,0.00,VWS V14.01,2013-03-03 06:15:00,
2013-03-03 01:20:00,32.6,25.6,29.64,NNE,21,0.0,3.0,75,0.00,,---,0.00,VWS V14.01,2013-03-03 06:20:00,
2013-03-03 01:25:00,33.0,25.6,29.65,NW,317,1.0,2.0,74,0.00,,---,0.00,VWS V14.01,2013-03-03 06:25:00,
2013-03-03 01:30:00,32.9,25.9,29.65,North,349,0.0,3.0,75,0.00,,---,0.00,VWS V14.01,2013-03-03 06:30:00,
2013-03-03 01:35:00,32.9,25.5,29.65,NW,317,1.0,5.0,74,0.00,,---,0.00,VWS V14.01,2013-03-03 06:35:00,
2013-03-03 01:40:00,32.8,25.8,29.65,NW,317,0.0,3.0,75,0.00,,---,0.00,VWS V14.01,2013-03-03 06:40:00,
2013-03-03 01:45:00,32.4,25.7,29.64,NNE,15,2.0,4.0,76,0.00,,---,0.00,VWS V14.01,2013-03-03 06:45:00,
2013-03-03 01:50:00,32.8,25.4,29.64,NW,323,1.0,9.0,74,0.00,,---,0.00,VWS V14.01,2013-03-03 06:50:00,
2013-03-03 01:55:00,32.8,25.8,29.64,WNW,300,0.0,3.0,75,0.00,,---,0.00,VWS V14.01,2013-03-03 06:55:00,
2013-03-03 02:00:00,32.7,25.7,29.64,NNE,17,3.0,3.0,75,0.00,,---,0.00,VWS V14.01,2013-03-03 07:00:00,
2013-03-03 02:05:00,32.7,25.7,29.64,North,3,0.0,4.0,75,0.00,,---,0.00,VWS V14.01,2013-03-03 07:05:00,
2013-03-03 02:10:00,32.6,25.6,29.64,North,350,2.0,4.0,75,0.00,,---,0.00,VWS V14.01,2013-03-03 07:10:00,
2013-03-03 02:15:00,32.6,25.6,29.64,WSW,238,1.0,4.0,75,0.00,,---,0.00,VWS V14.01,2013-03-03 07:15:00,
2013-03-03 02:20:00,32.6,25.6,29.64,NNE,21,0.0,3.0,75,0.00,,---,0.00,VWS V14.01,2013-03-03 07:20:00,
2013-03-03 02:25:00,32.5,25.5,29.64,NNE,16,0.0,5.0,75,0.00,,---,0.00,VWS V14.01,2013-03-03 07:25:00,
2013-03-03 02:30:00,32.5,25.8,29.64,NNE,16,1.0,2.0,76,0.00,,---,0.00,VWS V14.01,2013-03-03 07:30:00,
2013-03-03 02:35:00,32.5,25.8,29.64,NNE,25,0.0,3.0,76,0.00,,---,0.00,VWS V14.01,2013-03-03 07:35:00,
2013-03-03 02:40:00,32.5,25.8,29.64,NW,316,0.0,4.0,76,0.00,,---,0.00,VWS V14.01,2013-03-03 07:40:00,
2013-03-03 02:45:00,32.4,25.7,29.64,NNE,15,2.0,4.0,76,0.00,,---,0.00,VWS V14.01,2013-03-03 07:45:00,
2013-03-03 02:50:00,32.4,25.7,29.64,NNE,13,0.0,4.0,76,0.00,,---,0.00,VWS V14.01,2013-03-03 07:50:00,
2013-03-03 02:55:00,32.4,25.7,29.64,North,350,0.0,3.0,76,0.00,,---,0.00,VWS V14.01,2013-03-03 07:55:00,
2013-03-03 03:00:00,32.4,25.4,29.63,NNW,331,0.0,3.0,75,0.00,,---,0.00,VWS V14.01,2013-03-03 08:00:00,
2013-03-03 03:05:00,32.1,25.4,29.63,NNW,343,1.0,4.0,76,0.00,,---,0.00,VWS V14.01,2013-03-03 08:05:00,
2013-03-03 03:10:00,32.3,25.6,29.63,NW,317,0.0,3.0,76,0.00,,---,0.00,VWS V14.01,2013-03-03 08:10:00,
2013-03-03 03:15:00,32.3,25.6,29.63,NNW,336,2.0,3.0,76,0.00,,---,0.00,VWS V14.01,2013-03-03 08:15:00,
2013-03-03 03:20:00,32.3,25.6,29.63,NW,320,2.0,3.0,76,0.00,,---,0.00,VWS V14.01,2013-03-03 08:20:00,
2013-03-03 03:25:00,32.2,25.5,29.63,WNW,300,0.0,4.0,76,0.00,,---,0.00,VWS V14.01,2013-03-03 08:25:00,
2013-03-03 03:30:00,32.2,25.5,29.63,NE,35,0.0,4.0,76,0.00,,---,0.00,VWS V14.01,2013-03-03 08:30:00,
2013-03-03 03:35:00,32.2,25.5,29.63,North,350,0.0,2.0,76,0.00,,---,0.00,VWS V14.01,2013-03-03 08:35:00,
2013-03-03 03:40:00,32.1,25.4,29.63,NNW,336,1.0,4.0,76,0.00,,---,0.00,VWS V14.01,2013-03-03 08:40:00,
2013-03-03 03:45:00,32.1,25.7,29.63,North,7,2.0,4.0,77,0.00,,---,0.00,VWS V14.01,2013-03-03 08:45:00,
2013-03-03 03:50:00,32.1,25.4,29.63,WNW,300,0.0,3.0,76,0.00,,---,0.00,VWS V14.01,2013-03-03 08:50:00,
2013-03-03 03:55:00,32.1,25.4,29.63,NW,310,0.0,3.0,76,0.00,,---,0.00,VWS V14.01,2013-03-03 08:55:00,
2013-03-03 04:00:00,32.1,25.4,29.63,WNW,302,0.0,6.0,76,0.00,,---,0.00,VWS V14.01,2013-03-03 09:00:00,
2013-03-03 04:05:00,32.1,25.4,29.63,NNW,343,1.0,4.0,76,0.00,,---,0.00,VWS V14.01,2013-03-03 09:05:00,
2013-03-03 04:10:00,31.9,25.2,29.63,North,350,0.0,4.0,76,0.00,,---,0.00,VWS V14.01,2013-03-03 09:10:00,
2013-03-03 04:15:00,32.0,25.0,29.63,NNW,329,1.0,4.0,75,0.00,,---,0.00,VWS V14.01,2013-03-03 09:15:00,
2013-03-03 04:20:00,32.0,25.0,29.63,NE,40,1.0,3.0,75,0.00,,---,0.00,VWS V14.01,2013-03-03 09:20:00,
2013-03-03 04:25:00,32.0,25.3,29.63,NNW,336,0.0,2.0,76,0.00,,---,0.00,VWS V14.01,2013-03-03 09:25:00,
2013-03-03 04:30:00,32.0,25.3,29.63,NNE,30,1.0,4.0,76,0.00,,---,0.00,VWS V14.01,2013-03-03 09:30:00,
2013-03-03 04:35:00,32.0,25.3,29.63,North,353,0.0,3.0,76,0.00,,---,0.00,VWS V14.01,2013-03-03 09:35:00,
2013-03-03 04:40:00,32.0,25.3,29.63,NW,314,0.0,2.0,76,0.00,,---,0.00,VWS V14.01,2013-03-03 09:40:00,
2013-03-03 04:45:00,31.9,25.2,29.63,NW,314,0.0,3.0,76,0.00,,---,0.00,VWS V14.01,2013-03-03 09:45:00,
2013-03-03 04:50:00,31.9,25.2,29.63,NNW,346,1.0,5.0,76,0.00,,---,0.00,VWS V14.01,2013-03-03 09:50:00,
2013-03-03 04:55:00,31.9,25.2,29.63,North,354,0.0,5.0,76,0.00,,---,0.00,VWS V14.01,2013-03-03 09:55:00,
2013-03-03 05:00:00,31.9,25.2,29.63,NNE,14,1.0,5.0,76,0.00,,---,0.00,VWS V14.01,2013-03-03 10:00:00,
2013-03-03 05:05:00,31.9,25.2,29.63,North,356,1.0,4.0,76,0.00,,---,0.00,VWS V14.01,2013-03-03 10:05:00,
2013-03-03 05:10:00,31.9,25.2,29.63,North,350,0.0,4.0,76,0.00,,---,0.00,VWS V14.01,2013-03-03 10:10:00,
2013-03-03 05:15:00,31.8,25.1,29.63,NW,312,0.0,6.0,76,0.00,,---,0.00,VWS V14.01,2013-03-03 10:15:00,
2013-03-03 05:20:00,31.8,25.1,29.63,NNE,20,2.0,3.0,76,0.00,,---,0.00,VWS V14.01,2013-03-03 10:20:00,
2013-03-03 05:25:00,31.8,25.1,29.63,North,5,1.0,3.0,76,0.00,,---,0.00,VWS V14.01,2013-03-03 10:25:00,
2013-03-03 05:30:00,31.8,25.1,29.63,North,5,0.0,1.0,76,0.00,,---,0.00,VWS V14.01,2013-03-03 10:30:00,
2013-03-03 05:35:00,31.7,25.0,29.63,WNW,302,0.0,3.0,76,0.00,,---,0.00,VWS V14.01,2013-03-03 10:35:00,
2013-03-03 05:40:00,31.7,25.0,29.64,WNW,302,0.0,2.0,76,0.00,,---,0.00,VWS V14.01,2013-03-03 10:40:00,
2013-03-03 05:45:00,31.7,25.0,29.64,NW,326,0.0,4.0,76,0.00,,---,0.00,VWS V14.01,2013-03-03 10:45:00,
2013-03-03 05:50:00,31.7,25.0,29.63,North,356,0.0,5.0,76,0.00,,---,0.00,VWS V14.01,2013-03-03 10:50:00,
2013-03-03 05:55:00,31.7,25.0,29.63,North,356,0.0,2.0,76,0.00,,---,0.00,VWS V14.01,2013-03-03 10:55:00,
2013-03-03 06:00:00,31.6,24.9,29.63,NW,324,1.0,3.0,76,0.00,,---,0.00,VWS V14.01,2013-03-03 11:00:00,
2013-03-03 06:05:00,31.6,25.2,29.63,NW,323,3.0,3.0,77,0.00,,---,0.00,VWS V14.01,2013-03-03 11:05:00,
2013-03-03 06:10:00,31.6,25.2,29.63,NNW,331,1.0,4.0,77,0.00,,---,0.00,VWS V14.01,2013-03-03 11:10:00,
2013-03-03 06:15:00,31.2,25.5,29.65,NW,304,1.0,8.0,79,0.00,,---,0.00,VWS V14.01,2013-03-03 11:15:00,
2013-03-03 06:20:00,31.5,25.1,29.64,North,349,0.0,3.0,77,0.00,,---,0.00,VWS V14.01,2013-03-03 11:20:00,
2013-03-03 06:25:00,31.5,25.1,29.64,North,360,0.0,3.0,77,0.00,,---,0.00,VWS V14.01,2013-03-03 11:25:00,
2013-03-03 06:30:00,31.5,25.1,29.64,NW,309,1.0,3.0,77,0.00,,---,0.00,VWS V14.01,2013-03-03 11:30:00,
2013-03-03 06:35:00,31.5,25.1,29.64,NNE,21,0.0,3.0,77,0.00,,---,0.00,VWS V14.01,2013-03-03 11:35:00,
2013-03-03 06:40:00,31.5,25.1,29.64,WNW,296,2.0,4.0,77,0.00,,---,0.00,VWS V14.01,2013-03-03 11:40:00,
2013-03-03 06:45:00,31.5,25.4,29.64,NW,310,4.0,5.0,78,0.00,,---,0.00,VWS V14.01,2013-03-03 11:45:00,
2013-03-03 06:50:00,31.4,25.4,29.65,NW,307,4.0,7.0,78,0.00,,---,0.00,VWS V14.01,2013-03-03 11:50:00,
2013-03-03 06:55:00,31.4,25.4,29.65,NNW,348,3.0,8.0,78,0.00,,---,0.00,VWS V14.01,2013-03-03 11:55:00,
2013-03-03 07:00:00,31.3,25.2,29.65,NW,323,1.0,5.0,78,0.00,,---,0.00,VWS V14.01,2013-03-03 12:00:00,
2013-03-03 07:05:00,31.2,25.5,29.65,NNW,330,0.0,5.0,79,0.00,,---,0.00,VWS V14.01,2013-03-03 12:05:00,
2013-03-03 07:10:00,31.2,25.5,29.65,NNW,339,1.0,7.0,79,0.00,,---,0.00,VWS V14.01,2013-03-03 12:10:00,
2013-03-03 07:15:00,31.2,25.5,29.65,NW,304,1.0,8.0,79,0.00,,---,0.00,VWS V14.01,2013-03-03 12:15:00,
2013-03-03 07:20:00,31.2,25.5,29.65,NE,35,3.0,7.0,79,0.00,,---,0.00,VWS V14.01,2013-03-03 12:20:00,
2013-03-03 07:25:00,31.2,25.5,29.65,North,11,0.0,4.0,79,0.00,,---,0.00,VWS V14.01,2013-03-03 12:25:00,
2013-03-03 07:30:00,32.8,26.4,29.64,WNW,303,3.0,10.0,77,0.00,,---,0.00,VWS V14.01,2013-03-03 12:30:00,
2013-03-03 07:35:00,31.3,25.6,29.65,NNE,24,2.0,8.0,79,0.00,,---,0.00,VWS V14.01,2013-03-03 12:35:00,
2013-03-03 07:40:00,31.4,25.6,29.65,NNW,333,1.0,7.0,79,0.00,,---,0.00,VWS V14.01,2013-03-03 12:40:00,
2013-03-03 07:45:00,31.5,25.8,29.65,NNW,344,1.0,4.0,79,0.00,,---,0.00,VWS V14.01,2013-03-03 12:45:00,
2013-03-03 07:50:00,31.8,26.0,29.64,NNE,30,6.0,6.0,79,0.00,,---,0.00,VWS V14.01,2013-03-03 12:50:00,
2013-03-03 07:55:00,32.0,25.9,29.65,NW,306,4.0,7.0,78,0.00,,---,0.00,VWS V14.01,2013-03-03 12:55:00,
2013-03-03 08:00:00,32.1,26.0,29.64,NNW,332,6.0,7.0,78,0.00,,---,0.00,VWS V14.01,2013-03-03 13:00:00,
2013-03-03 08:05:00,32.1,26.0,29.64,NNW,339,1.0,6.0,78,0.00,,---,0.00,VWS V14.01,2013-03-03 13:05:00,
2013-03-03 08:10:00,32.3,26.2,29.64,NE,44,0.0,5.0,78,0.00,,---,0.00,VWS V14.01,2013-03-03 13:10:00,
2013-03-03 08:15:00,34.1,28.0,29.64,North,351,2.0,3.0,78,0.00,,---,0.00,VWS V14.01,2013-03-03 13:15:00,
2013-03-03 08:20:00,32.6,26.5,29.64,NNE,30,0.0,7.0,78,0.00,,---,0.00,VWS V14.01,2013-03-03 13:20:00,
2013-03-03 08:25:00,32.8,26.4,29.64,NNW,346,0.0,5.0,77,0.00,,---,0.00,VWS V14.01,2013-03-03 13:25:00,
2013-03-03 08:30:00,34.4,28.0,29.63,NNE,13,1.0,7.0,77,0.00,,---,0.00,VWS V14.01,2013-03-03 13:30:00,
2013-03-03 08:35:00,32.7,26.3,29.64,North,9,2.0,6.0,77,0.00,,---,0.00,VWS V14.01,2013-03-03 13:35:00,
2013-03-03 08:40:00,32.9,26.8,29.64,NNW,342,1.0,2.0,78,0.00,,---,0.00,VWS V14.01,2013-03-03 13:40:00,
2013-03-03 08:45:00,33.0,26.6,29.64,NNW,338,2.0,7.0,77,0.00,,---,0.00,VWS V14.01,2013-03-03 13:45:00,
2013-03-03 08:50:00,33.2,27.1,29.64,NW,315,0.0,4.0,78,0.00,,---,0.00,VWS V14.01,2013-03-03 13:50:00,
2013-03-03 08:55:00,33.4,27.0,29.64,NNW,335,3.0,6.0,77,0.00,,---,0.00,VWS V14.01,2013-03-03 13:55:00,
2013-03-03 09:00:00,33.5,27.4,29.64,North,4,7.0,7.0,78,0.00,,---,0.00,VWS V14.01,2013-03-03 14:00:00,
2013-03-03 09:05:00,33.8,27.4,29.64,WSW,257,3.0,12.0,77,0.00,,---,0.00,VWS V14.01,2013-03-03 14:05:00,
2013-03-03 09:10:00,33.7,27.6,29.64,NW,325,0.0,7.0,78,0.00,,---,0.00,VWS V14.01,2013-03-03 14:10:00,
2013-03-03 09:15:00,34.1,28.0,29.64,North,351,2.0,3.0,78,0.00,,---,0.00,VWS V14.01,2013-03-03 14:15:00,
2013-03-03 09:20:00,34.4,28.0,29.63,NNE,30,5.0,6.0,77,0.00,,---,0.00,VWS V14.01,2013-03-03 14:20:00,
2013-03-03 09:25:00,36.0,29.5,29.62,NNW,335,2.0,5.0,77,0.00,,---,0.00,VWS V14.01,2013-03-03 14:25:00,
2013-03-03 09:30:00,34.4,28.0,29.63,NNE,13,1.0,7.0,77,0.00,,---,0.00,VWS V14.01,2013-03-03 14:30:00,
2013-03-03 09:35:00,34.7,28.2,29.63,NNW,337,0.0,6.0,77,0.00,,---,0.00,VWS V14.01,2013-03-03 14:35:00,
2013-03-03 09:40:00,34.6,28.1,29.63,NNE,17,3.0,11.0,77,0.00,,---,0.00,VWS V14.01,2013-03-03 14:40:00,
2013-03-03 09:45:00,34.8,28.3,29.63,NW,320,0.0,6.0,77,0.00,,---,0.00,VWS V14.01,2013-03-03 14:45:00,
2013-03-03 09:50:00,35.1,28.6,29.62,NE,45,3.0,7.0,77,0.00,,---,0.00,VWS V14.01,2013-03-03 14:50:00,
2013-03-03 09:55:00,35.3,28.8,29.62,SW,233,0.0,5.0,77,0.00,,---,0.00,VWS V14.01,2013-03-03 14:55:00,
2013-03-03 10:00:00,35.6,29.1,29.62,NNW,348,0.0,7.0,77,0.00,,---,0.00,VWS V14.01,2013-03-03 15:00:00,
2013-03-03 10:05:00,35.8,29.3,29.62,North,5,2.0,7.0,77,0.00,,---,0.00,VWS V14.01,2013-03-03 15:05:00,
2013-03-03 10:10:00,35.7,29.2,29.62,NW,312,1.0,9.0,77,0.00,,---,0.00,VWS V14.01,2013-03-03 15:10:00,
2013-03-03 10:15:00,35.7,29.2,29.62,NE,35,4.0,10.0,77,0.00,,---,0.00,VWS V14.01,2013-03-03 15:15:00,
2013-03-03 10:20:00,35.9,29.4,29.62,NW,310,5.0,5.0,77,0.00,,---,0.00,VWS V14.01,2013-03-03 15:20:00,
2013-03-03 10:25:00,36.0,29.5,29.62,NNW,335,2.0,5.0,77,0.00,,---,0.00,VWS V14.01,2013-03-03 15:25:00,
2013-03-03 10:30:00,36.0,29.5,29.62,WNW,298,2.0,9.0,77,0.00,,---,0.00,VWS V14.01,2013-03-03 15:30:00,
2013-03-03 10:35:00,36.0,29.5,29.62,NW,321,1.0,5.0,77,0.00,,---,0.00,VWS V14.01,2013-03-03 15:35:00,
2013-03-03 10:40:00,35.9,29.7,29.62,NW,308,2.0,6.0,78,0.00,,---,0.00,VWS V14.01,2013-03-03 15:40:00,
2013-03-03 10:45:00,35.8,29.6,29.62,NW,315,1.0,6.0,78,0.00,,---,0.00,VWS V14.01,2013-03-03 15:45:00,
2013-03-03 10:50:00,35.8,29.6,29.62,WNW,297,3.0,7.0,78,0.00,,---,0.00,VWS V14.01,2013-03-03 15:50:00,
2013-03-03 10:55:00,36.5,30.9,29.61,North,3,0.0,6.0,80,0.00,,---,0.00,VWS V14.01,2013-03-03 15:55:00,
2013-03-03 11:00:00,36.3,30.4,29.62,WNW,293,4.0,6.0,79,0.00,,---,0.00,VWS V14.01,2013-03-03 16:00:00,
2013-03-03 11:05:00,36.1,30.5,29.62,NE,40,3.0,6.0,80,0.00,,---,0.00,VWS V14.01,2013-03-03 16:05:00,
2013-03-03 11:10:00,36.1,30.5,29.61,NNE,21,2.0,6.0,80,0.00,,---,0.00,VWS V14.01,2013-03-03 16:10:00,
2013-03-03 11:15:00,35.9,30.3,29.62,North,360,0.0,6.0,80,0.00,,---,0.00,VWS V14.01,2013-03-03 16:15:00,
2013-03-03 11:20:00,36.0,30.8,29.61,North,4,4.0,6.0,81,0.00,,---,0.00,VWS V14.01,2013-03-03 16:20:00,
2013-03-03 11:25:00,36.0,30.4,29.61,NE,40,4.0,7.0,80,0.00,,---,0.00,VWS V14.01,2013-03-03 16:25:00,
2013-03-03 11:30:00,36.1,30.8,29.61,SW,227,3.0,10.0,81,0.00,,---,0.00,VWS V14.01,2013-03-03 16:30:00,
2013-03-03 11:35:00,36.1,30.8,29.61,WNW,300,4.0,6.0,81,0.00,,---,0.00,VWS V14.01,2013-03-03 16:35:00,
2013-03-03 11:40:00,35.9,30.6,29.61,NNE,14,3.0,5.0,81,0.00,,---,0.00,VWS V14.01,2013-03-03 16:40:00,
2013-03-03 11:45:00,36.0,30.8,29.61,North,356,0.0,6.0,81,0.00,,---,0.00,VWS V14.01,2013-03-03 16:45:00,
2013-03-03 11:50:00,38.6,31.4,29.59,North,355,1.0,5.0,75,0.00,,---,0.00,VWS V14.01,2013-03-03 16:50:00,
2013-03-03 11:55:00,36.5,30.9,29.61,North,3,0.0,6.0,80,0.00,,---,0.00,VWS V14.01,2013-03-03 16:55:00,
2013-03-03 12:00:00,36.9,31.3,29.61,WNW,291,2.0,5.0,80,0.00,,---,0.00,VWS V14.01,2013-03-03 17:00:00,
2013-03-03 12:05:00,37.1,31.2,29.60,North,7,2.0,8.0,79,0.00,,---,0.00,VWS V14.01,2013-03-03 17:05:00,
2013-03-03 12:10:00,37.4,30.9,29.60,NE,35,2.0,6.0,77,0.00,,---,0.00,VWS V14.01,2013-03-03 17:10:00,
2013-03-03 12:15:00,37.5,31.0,29.60,WNW,289,2.0,6.0,77,0.00,,---,0.00,VWS V14.01,2013-03-03 17:15:00,
2013-03-03 12:20:00,37.8,31.2,29.60,NW,313,3.0,6.0,77,0.00,,---,0.00,VWS V14.01,2013-03-03 17:20:00,
2013-03-03 12:25:00,37.9,31.0,29.59,WNW,284,3.0,5.0,76,0.00,,---,0.00,VWS V14.01,2013-03-03 17:25:00,
2013-03-03 12:30:00,37.9,31.0,29.59,NNW,338,2.0,6.0,76,0.00,,---,0.00,VWS V14.01,2013-03-03 17:30:00,
2013-03-03 12:35:00,37.9,31.0,29.59,NW,316,4.0,7.0,76,0.00,,---,0.00,VWS V14.01,2013-03-03 17:35:00,
2013-03-03 12:40:00,38.0,31.1,29.59,North,352,1.0,11.0,76,0.00,,---,0.00,VWS V14.01,2013-03-03 17:40:00,
2013-03-03 12:45:00,38.3,31.1,29.59,WSW,253,1.0,5.0,75,0.00,,---,0.00,VWS V14.01,2013-03-03 17:45:00,
2013-03-03 12:50:00,38.6,31.4,29.59,North,355,1.0,5.0,75,0.00,,---,0.00,VWS V14.01,2013-03-03 17:50:00,
2013-03-03 12:55:00,38.7,31.1,29.59,NNW,348,1.0,7.0,74,0.00,,---,0.00,VWS V14.01,2013-03-03 17:55:00,
2013-03-03 13:00:00,38.7,31.1,29.58,WNW,294,0.0,5.0,74,0.00,,---,0.00,VWS V14.01,2013-03-03 18:00:00,
2013-03-03 13:05:00,38.9,31.0,29.58,NW,323,5.0,11.0,73,0.00,,---,0.00,VWS V14.01,2013-03-03 18:05:00,
2013-03-03 13:10:00,38.6,31.0,29.58,NW,314,0.0,8.0,74,0.00,,---,0.00,VWS V14.01,2013-03-03 18:10:00,
2013-03-03 13:15:00,38.8,31.2,29.58,North,360,2.0,3.0,74,0.00,,---,0.00,VWS V14.01,2013-03-03 18:15:00,
2013-03-03 13:20:00,39.1,31.2,29.58,WNW,294,1.0,5.0,73,0.00,,---,0.00,VWS V14.01,2013-03-03 18:20:00,
2013-03-03 13:25:00,39.1,31.2,29.58,NW,325,4.0,6.0,73,0.00,,---,0.00,VWS V14.01,2013-03-03 18:25:00,
2013-03-03 13:30:00,39.2,31.6,29.58,ENE,57,0.0,4.0,74,0.00,,---,0.00,VWS V14.01,2013-03-03 18:30:00,
2013-03-03 13:35:00,39.2,31.3,29.58,SW,227,4.0,8.0,73,0.00,,---,0.00,VWS V14.01,2013-03-03 18:35:00,
2013-03-03 13:40:00,39.0,31.4,29.58,WNW,294,0.0,8.0,74,0.00,,---,0.00,VWS V14.01,2013-03-03 18:40:00,
2013-03-03 13:45:00,39.1,31.5,29.58,NNW,336,2.0,5.0,74,0.00,,---,0.00,VWS V14.01,2013-03-03 18:45:00,
2013-03-03 13:50:00,38.8,31.6,29.58,NW,314,1.0,6.0,75,0.00,,---,0.00,VWS V14.01,2013-03-03 18:50:00,
2013-03-03 13:55:00,39.6,31.7,29.57,NNW,333,1.0,6.0,73,0.00,,---,0.00,VWS V14.01,2013-03-03 18:55:00,
2013-03-03 14:00:00,38.4,31.8,29.58,NNE,23,0.0,4.0,77,0.00,,---,0.00,VWS V14.01,2013-03-03 19:00:00,
2013-03-03 14:05:00,38.3,32.0,29.58,NNW,337,1.0,4.0,78,0.00,,---,0.00,VWS V14.01,2013-03-03 19:05:00,
2013-03-03 14:10:00,38.2,32.0,29.57,NNW,344,0.0,6.0,78,0.00,,---,0.00,VWS V14.01,2013-03-03 19:10:00,
2013-03-03 14:15:00,38.3,31.4,29.57,NNW,329,2.0,4.0,76,0.00,,---,0.00,VWS V14.01,2013-03-03 19:15:00,
2013-03-03 14:20:00,38.6,31.4,29.57,North,5,0.0,4.0,75,0.00,,---,0.00,VWS V14.01,2013-03-03 19:20:00,
2013-03-03 14:25:00,38.4,32.2,29.57,NNW,338,1.0,6.0,78,0.00,,---,0.00,VWS V14.01,2013-03-03 19:25:00,
2013-03-03 14:30:00,39.1,31.5,29.57,NW,312,4.0,6.0,74,0.00,,---,0.00,VWS V14.01,2013-03-03 19:30:00,
2013-03-03 14:35:00,39.2,31.0,29.57,NNE,18,1.0,6.0,72,0.00,,---,0.00,VWS V14.01,2013-03-03 19:35:00,
2013-03-03 14:40:00,39.4,31.1,29.57,NNE,18,2.0,5.0,72,0.00,,---,0.00,VWS V14.01,2013-03-03 19:40:00,
2013-03-03 14:45:00,39.6,31.7,29.57,WNW,302,0.0,5.0,73,0.00,,---,0.00,VWS V14.01,2013-03-03 19:45:00,
2013-03-03 14:50:00,39.6,31.7,29.57,NNW,331,2.0,7.0,73,0.00,,---,0.00,VWS V14.01,2013-03-03 19:50:00,
2013-03-03 14:55:00,39.6,31.7,29.57,NNW,333,1.0,6.0,73,0.00,,---,0.00,VWS V14.01,2013-03-03 19:55:00,
2013-03-03 15:00:00,39.4,31.8,29.57,North,360,3.0,5.0,74,0.00,,---,0.00,VWS V14.01,2013-03-03 20:00:00,
2013-03-03 15:05:00,39.2,32.0,29.57,North,4,3.0,5.0,75,0.00,,---,0.00,VWS V14.01,2013-03-03 20:05:00,
2013-03-03 15:10:00,38.9,31.7,29.57,North,6,0.0,6.0,75,0.00,,---,0.00,VWS V14.01,2013-03-03 20:10:00,
2013-03-03 15:15:00,38.7,32.1,29.57,North,354,3.0,6.0,77,0.00,,---,0.00,VWS V14.01,2013-03-03 20:15:00,
2013-03-03 15:20:00,38.6,32.0,29.57,WNW,292,2.0,6.0,77,0.00,,---,0.00,VWS V14.01,2013-03-03 20:20:00,
2013-03-03 15:25:00,38.4,32.2,29.57,NNW,338,1.0,6.0,78,0.00,,---,0.00,VWS V14.01,2013-03-03 20:25:00,
2013-03-03 15:30:00,38.3,32.0,29.57,NNE,30,3.0,6.0,78,0.00,,---,0.00,VWS V14.01,2013-03-03 20:30:00,
2013-03-03 15:35:00,38.1,31.9,29.57,NNW,329,6.0,9.0,78,0.00,,---,0.00,VWS V14.01,2013-03-03 20:35:00,
2013-03-03 15:40:00,37.8,32.2,29.58,NE,35,3.0,6.0,80,0.00,,---,0.00,VWS V14.01,2013-03-03 20:40:00,
2013-03-03 15:45:00,37.8,32.2,29.57,NNW,342,2.0,6.0,80,0.00,,---,0.00,VWS V14.01,2013-03-03 20:45:00,
2013-03-03 15:50:00,37.6,32.0,29.57,NW,316,2.0,9.0,80,0.00,,---,0.00,VWS V14.01,2013-03-03 20:50:00,
2013-03-03 15:55:00,37.6,31.7,29.58,SW,221,1.0,7.0,79,0.00,,---,0.00,VWS V14.01,2013-03-03 20:55:00,
2013-03-03 16:00:00,37.5,31.9,29.58,NE,40,0.0,4.0,80,0.00,,---,0.00,VWS V14.01,2013-03-03 21:00:00,
2013-03-03 16:05:00,37.5,32.2,29.58,NE,35,1.0,4.0,81,0.00,,---,0.00,VWS V14.01,2013-03-03 21:05:00,
2013-03-03 16:10:00,37.3,32.0,29.58,North,3,3.0,4.0,81,0.00,,---,0.00,VWS V14.01,2013-03-03 21:10:00,
2013-03-03 16:15:00,37.2,31.9,29.58,WSW,253,4.0,6.0,81,0.00,,---,0.00,VWS V14.01,2013-03-03 21:15:00,
2013-03-03 16:20:00,35.4,32.2,29.58,NNW,333,0.0,4.0,88,0.00,,---,0.00,VWS V14.01,2013-03-03 21:20:00,
2013-03-03 16:25:00,36.9,32.2,29.58,NW,323,3.0,5.0,83,0.00,,---,0.00,VWS V14.01,2013-03-03 21:25:00,
2013-03-03 16:30:00,36.9,32.2,29.58,WNW,285,1.0,5.0,83,0.00,,---,0.00,VWS V14.01,2013-03-03 21:30:00,
2013-03-03 16:35:00,36.9,32.2,29.58,North,1,0.0,3.0,83,0.00,,---,0.00,VWS V14.01,2013-03-03 21:35:00,
2013-03-03 16:40:00,36.9,32.2,29.58,WNW,293,2.0,5.0,83,0.00,,---,0.00,VWS V14.01,2013-03-03 21:40:00,
2013-03-03 16:45:00,36.8,32.4,29.58,NW,304,3.0,5.0,84,0.00,,---,0.00,VWS V14.01,2013-03-03 21:45:00,
2013-03-03 16:50:00,36.6,32.5,29.58,NNW,334,3.0,4.0,85,0.00,,---,0.00,VWS V14.01,2013-03-03 21:50:00,
2013-03-03 16:55:00,36.4,32.3,29.58,NNW,327,0.0,4.0,85,0.00,,---,0.00,VWS V14.01,2013-03-03 21:55:00,
2013-03-03 17:00:00,36.1,32.3,29.58,West,260,0.0,7.0,86,0.00,,---,0.00,VWS V14.01,2013-03-03 22:00:00,
2013-03-03 17:05:00,36.0,32.5,29.58,North,2,0.0,3.0,87,0.00,,---,0.00,VWS V14.01,2013-03-03 22:05:00,
2013-03-03 17:10:00,35.8,32.3,29.58,NW,312,2.0,4.0,87,0.00,,---,0.00,VWS V14.01,2013-03-03 22:10:00,
2013-03-03 17:15:00,35.6,32.1,29.59,NNW,338,4.0,5.0,87,0.00,,---,0.00,VWS V14.01,2013-03-03 22:15:00,
2013-03-03 17:20:00,35.4,32.2,29.58,NNW,333,0.0,4.0,88,0.00,,---,0.00,VWS V14.01,2013-03-03 22:20:00,
2013-03-03 17:25:00,35.3,32.1,29.59,NW,321,1.0,2.0,88,0.00,,---,0.00,VWS V14.01,2013-03-03 22:25:00,
2013-03-03 17:30:00,34.5,31.3,29.60,North,356,3.0,3.0,88,0.00,,---,0.00,VWS V14.01,2013-03-03 22:30:00,
2013-03-03 17:35:00,35.0,31.8,29.59,West,281,1.0,4.0,88,0.00,,---,0.00,VWS V14.01,2013-03-03 22:35:00,
2013-03-03 17:40:00,34.9,31.7,29.59,SSE,165,0.0,5.0,88,0.00,,---,0.00,VWS V14.01,2013-03-03 22:40:00,
2013-03-03 17:45:00,34.8,31.6,29.59,WNW,298,1.0,4.0,88,0.00,,---,0.00,VWS V14.01,2013-03-03 22:45:00,
2013-03-03 17:50:00,34.8,31.6,29.59,NE,44,0.0,2.0,88,0.00,,---,0.00,VWS V14.01,2013-03-03 22:50:00,
2013-03-03 17:55:00,34.7,31.5,29.59,West,273,3.0,4.0,88,0.00,,---,0.00,VWS V14.01,2013-03-03 22:55:00,
2013-03-03 18:00:00,34.7,31.5,29.59,North,356,3.0,5.0,88,0.00,,---,0.00,VWS V14.01,2013-03-03 23:00:00,
2013-03-03 18:05:00,34.7,31.5,29.59,North,356,0.0,3.0,88,0.00,,---,0.00,VWS V14.01,2013-03-03 23:05:00,
2013-03-03 18:10:00,34.6,31.4,29.59,NNE,30,0.0,1.0,88,0.00,,---,0.00,VWS V14.01,2013-03-03 23:10:00,
2013-03-03 18:15:00,34.6,31.4,29.60,WSW,246,0.0,2.0,88,0.00,,---,0.00,VWS V14.01,2013-03-03 23:15:00,
2013-03-03 18:20:00,34.5,31.3,29.60,WNW,288,1.0,3.0,88,0.00,,---,0.00,VWS V14.01,2013-03-03 23:20:00,
2013-03-03 18:25:00,34.5,31.3,29.60,North,7,2.0,4.0,88,0.00,,---,0.00,VWS V14.01,2013-03-03 23:25:00,
2013-03-03 18:30:00,34.5,31.3,29.60,North,356,3.0,3.0,88,0.00,,---,0.00,VWS V14.01,2013-03-03 23:30:00,
2013-03-03 18:35:00,34.5,31.3,29.60,NW,312,0.0,6.0,88,0.00,,---,0.00,VWS V14.01,2013-03-03 23:35:00,
2013-03-03 18:40:00,34.5,31.3,29.60,NW,312,0.0,3.0,88,0.00,,---,0.00,VWS V14.01,2013-03-03 23:40:00,
2013-03-03 18:45:00,34.5,31.3,29.60,NNW,342,2.0,3.0,88,0.00,,---,0.00,VWS V14.01,2013-03-03 23:45:00,
2013-03-03 18:50:00,34.5,31.3,29.60,NW,310,2.0,5.0,88,0.00,,---,0.00,VWS V14.01,2013-03-03 23:50:00,
2013-03-03 18:55:00,34.6,31.1,29.60,NE,35,1.0,7.0,87,0.00,,---,0.00,VWS V14.01,2013-03-03 23:55:00,
2013-03-03 19:00:00,34.6,31.1,29.60,NNW,337,5.0,8.0,87,0.00,,---,0.00,VWS V14.01,2013-03-04 00:00:00,
2013-03-03 19:05:00,34.4,31.2,29.60,NW,312,0.0,5.0,88,0.00,,---,0.00,VWS V14.01,2013-03-04 00:05:00,
2013-03-03 19:10:00,34.4,31.2,29.60,NW,312,2.0,2.0,88,0.00,,---,0.00,VWS V14.01,2013-03-04 00:10:00,
2013-03-03 19:15:00,34.3,31.1,29.61,NNW,339,2.0,4.0,88,0.00,,---,0.00,VWS V14.01,2013-03-04 00:15:00,
2013-03-03 19:20:00,34.1,31.2,29.60,NW,316,1.0,4.0,89,0.00,,---,0.00,VWS V14.01,2013-03-04 00:20:00,
2013-03-03 19:25:00,33.9,31.0,29.60,NW,319,3.0,4.0,89,0.00,,---,0.00,VWS V14.01,2013-03-04 00:25:00,
2013-03-03 19:30:00,33.8,31.2,29.60,NNW,348,0.0,4.0,90,0.00,,---,0.00,VWS V14.01,2013-03-04 00:30:00,
2013-03-03 19:35:00,33.7,31.1,29.60,NNW,340,0.0,2.0,90,0.00,,---,0.00,VWS V14.01,2013-03-04 00:35:00,
2013-03-03 19:40:00,33.7,31.1,29.60,North,358,2.0,6.0,90,0.00,,---,0.00,VWS V14.01,2013-03-04 00:40:00,
2013-03-03 19:45:00,33.6,31.0,29.60,WNW,285,2.0,6.0,90,0.00,,---,0.00,VWS V14.01,2013-03-04 00:45:00,
2013-03-03 19:50:00,33.5,30.9,29.61,West,281,0.0,5.0,90,0.00,,---,0.00,VWS V14.01,2013-03-04 00:50:00,
2013-03-03 19:55:00,33.4,30.8,29.61,NNW,329,0.0,5.0,90,0.00,,---,0.00,VWS V14.01,2013-03-04 00:55:00,
2013-03-03 20:00:00,33.4,31.1,29.61,WNW,301,4.0,6.0,91,0.00,,---,0.00,VWS V14.01,2013-03-04 01:00:00,
2013-03-03 20:05:00,33.4,31.1,29.61,NW,323,0.0,4.0,91,0.00,,---,0.00,VWS V14.01,2013-03-04 01:05:00,
2013-03-03 20:10:00,33.3,31.0,29.61,WNW,294,3.0,4.0,91,0.00,,---,0.00,VWS V14.01,2013-03-04 01:10:00,
2013-03-03 20:15:00,33.2,30.9,29.61,North,358,3.0,4.0,91,0.00,,---,0.00,VWS V14.01,2013-03-04 01:15:00,
2013-03-03 20:20:00,33.1,30.8,29.61,North,357,0.0,3.0,91,0.00,,---,0.00,VWS V14.01,2013-03-04 01:20:00,
2013-03-03 20:25:00,33.1,30.8,29.61,NNW,340,1.0,5.0,91,0.00,,---,0.00,VWS V14.01,2013-03-04 01:25:00,
2013-03-03 20:30:00,33.0,30.7,29.61,WSW,250,3.0,4.0,91,0.00,,---,0.00,VWS V14.01,2013-03-04 01:30:00,
2013-03-03 20:35:00,33.0,30.7,29.61,WNW,299,0.0,3.0,91,0.00,,---,0.00,VWS V14.01,2013-03-04 01:35:00,
2013-03-03 20:40:00,32.9,30.6,29.61,WNW,299,0.0,2.0,91,0.00,,---,0.00,VWS V14.01,2013-03-04 01:40:00,
2013-03-03 20:45:00,32.8,30.7,29.61,WNW,290,0.0,5.0,92,0.00,,---,0.00,VWS V14.01,2013-03-04 01:45:00,
2013-03-03 20:50:00,32.8,30.7,29.61,NE,50,1.0,4.0,92,0.00,,---,0.00,VWS V14.01,2013-03-04 01:50:00,
2013-03-03 20:55:00,32.7,30.6,29.61,WNW,294,0.0,3.0,92,0.00,,---,0.00,VWS V14.01,2013-03-04 01:55:00,
2013-03-03 21:00:00,32.7,30.6,29.61,NW,323,0.0,3.0,92,0.00,,---,0.00,VWS V14.01,2013-03-04 02:00:00,
2013-03-03 21:05:00,32.6,30.5,29.61,WNW,298,1.0,4.0,92,0.00,,---,0.00,VWS V14.01,2013-03-04 02:05:00,
2013-03-03 21:10:00,32.6,30.5,29.61,WNW,293,2.0,3.0,92,0.00,,---,0.00,VWS V14.01,2013-03-04 02:10:00,
2013-03-03 21:15:00,32.6,30.5,29.61,North,359,2.0,3.0,92,0.00,,---,0.00,VWS V14.01,2013-03-04 02:15:00,
2013-03-03 21:20:00,32.6,30.5,29.61,West,273,2.0,4.0,92,0.00,,---,0.00,VWS V14.01,2013-03-04 02:20:00,
2013-03-03 21:25:00,32.6,30.5,29.61,SW,229,0.0,4.0,92,0.00,,---,0.00,VWS V14.01,2013-03-04 02:25:00,
2013-03-03 21:30:00,32.6,30.5,29.61,NNE,30,0.0,3.0,92,0.00,,---,0.00,VWS V14.01,2013-03-04 02:30:00,
2013-03-03 21:35:00,32.7,30.4,29.61,NW,325,0.0,4.0,91,0.00,,---,0.00,VWS V14.01,2013-03-04 02:35:00,
2013-03-03 21:40:00,32.7,30.4,29.61,NW,308,0.0,3.0,91,0.00,,---,0.00,VWS V14.01,2013-03-04 02:40:00,
2013-03-03 21:45:00,32.8,30.5,29.61,North,355,0.0,2.0,91,0.00,,---,0.00,VWS V14.01,2013-03-04 02:45:00,
2013-03-03 21:50:00,32.8,30.2,29.61,NW,314,1.0,4.0,90,0.00,,---,0.00,VWS V14.01,2013-03-04 02:50:00,
2013-03-03 21:55:00,33.0,29.8,29.60,NNW,348,1.0,6.0,88,0.00,,---,0.00,VWS V14.01,2013-03-04 02:55:00,
2013-03-03 22:00:00,33.2,29.2,29.61,North,7,1.0,6.0,85,0.00,,---,0.00,VWS V14.01,2013-03-04 03:00:00,
2013-03-03 22:05:00,33.4,29.1,29.60,NW,320,5.0,5.0,84,0.00,,---,0.00,VWS V14.01,2013-03-04 03:05:00,
2013-03-03 22:10:00,33.6,29.0,29.60,NNE,16,0.0,5.0,83,0.00,,---,0.00,VWS V14.01,2013-03-04 03:10:00,
2013-03-03 22:15:00,33.8,28.6,29.60,NNE,30,0.0,6.0,81,0.00,,---,0.00,VWS V14.01,2013-03-04 03:15:00,
2013-03-03 22:20:00,33.9,28.4,29.60,NW,321,3.0,6.0,80,0.00,,---,0.00,VWS V14.01,2013-03-04 03:20:00,
2013-03-03 22:25:00,34.1,28.3,29.60,NNW,342,1.0,7.0,79,0.00,,---,0.00,VWS V14.01,2013-03-04 03:25:00,
2013-03-03 22:30:00,34.1,28.3,29.60,North,9,0.0,4.0,79,0.00,,---,0.00,VWS V14.01,2013-03-04 03:30:00,
2013-03-03 22:35:00,34.2,28.1,29.60,WNW,301,4.0,6.0,78,0.00,,---,0.00,VWS V14.01,2013-03-04 03:35:00,
2013-03-03 22:40:00,34.3,27.9,29.60,NNW,342,3.0,6.0,77,0.00,,---,0.00,VWS V14.01,2013-03-04 03:40:00,
2013-03-03 22:45:00,34.3,27.9,29.60,North,356,1.0,6.0,77,0.00,,---,0.00,VWS V14.01,2013-03-04 03:45:00,
2013-03-03 22:50:00,34.2,27.4,29.60,NW,312,0.0,5.0,76,0.00,,---,0.00,VWS V14.01,2013-03-04 03:50:00,
2013-03-03 22:55:00,34.3,27.5,29.60,North,11,0.0,7.0,76,0.00,,---,0.00,VWS V14.01,2013-03-04 03:55:00,
2013-03-03 23:00:00,34.2,27.8,29.60,North,11,2.0,2.0,77,0.00,,---,0.00,VWS V14.01,2013-03-04 04:00:00,
2013-03-03 23:05:00,34.1,28.3,29.60,NNW,339,1.0,4.0,79,0.00,,---,0.00,VWS V14.01,2013-03-04 04:05:00,
2013-03-03 23:10:00,34.0,28.2,29.60,NW,321,4.0,6.0,79,0.00,,---,0.00,VWS V14.01,2013-03-04 04:10:00,
2013-03-03 23:15:00,33.8,27.7,29.60,NNW,348,2.0,6.0,78,0.00,,---,0.00,VWS V14.01,2013-03-04 04:15:00,
2013-03-03 23:20:00,33.8,27.7,29.60,NW,311,3.0,4.0,78,0.00,,---,0.00,VWS V14.01,2013-03-04 04:20:00,
2013-03-03 23:25:00,33.7,27.6,29.60,NNW,330,3.0,10.0,78,0.00,,---,0.00,VWS V14.01,2013-03-04 04:25:00,
2013-03-03 23:30:00,33.6,27.5,29.60,WNW,298,2.0,5.0,78,0.00,,---,0.00,VWS V14.01,2013-03-04 04:30:00,
2013-03-03 23:35:00,33.5,27.4,29.60,North,351,0.0,4.0,78,0.00,,---,0.00,VWS V14.01,2013-03-04 04:35:00,
2013-03-03 23:40:00,33.4,27.3,29.60,NNE,19,4.0,5.0,78,0.00,,---,0.00,VWS V14.01,2013-03-04 04:40:00,
2013-03-03 23:45:00,33.4,27.0,29.60,ENE,73,1.0,5.0,77,0.00,,---,0.00,VWS V14.01,2013-03-04 04:45:00,
2013-03-03 23:50:00,33.4,27.0,29.60,NE,35,2.0,10.0,77,0.00,,---,0.00,VWS V14.01,2013-03-04 04:50:00,
2013-03-03 23:55:00,32.7,26.0,29.60,NNW,333,0.0,5.0,76,0.00,,---,0.00,VWS V14.01,2013-03-04 04:55:00,